When you browse on this site, cookies collect data to enhance your experience and personalize the content and advertising you see.
Visit our Privacy Policy to learn more. By continuing to use the site, you agree to this use of cookies and data.
EN

Hourly Weather Ugledar

Today, 15 July, Wednesday

Time Temperature Precipitation Wind Pressure Humidity
00:00 +14°C° 0 mm 4 mps 742 mmHg 86%
01:00 +14°C° 0 mm 5 mps 742 mmHg 86%
02:00 +13°C° 0 mm 5 mps 742 mmHg 84%
03:00 +14°C° 0 mm 5 mps 742 mmHg 83%
04:00 +14°C° 0 mm 5 mps 743 mmHg 81%
05:00 +14°C° 0 mm 5 mps 743 mmHg 79%
06:00 +16°C° 0 mm 5 mps 743 mmHg 73%
07:00 +17°C° 0 mm 6 mps 744 mmHg 67%
08:00 +20°C° 0 mm 6 mps 744 mmHg 60%
09:00 +21°C° 0 mm 6 mps 744 mmHg 56%
10:00 +22°C° 0 mm 5 mps 744 mmHg 53%
11:00 +23°C° 0 mm 5 mps 744 mmHg 49%
12:00 +25°C° 0 mm 5 mps 745 mmHg 47%
13:00 +25°C° 0 mm 5 mps 745 mmHg 45%
14:00 +26°C° 0 mm 5 mps 745 mmHg 43%
15:00 +25°C° 0 mm 4 mps 745 mmHg 45%
16:00 +25°C° 0 mm 4 mps 744 mmHg 46%
17:00 +25°C° 0 mm 4 mps 744 mmHg 47%
18:00 +22°C° 0 mm 3 mps 745 mmHg 51%
19:00 +20°C° 0 mm 2 mps 745 mmHg 55%
20:00 +19°C° 0 mm 2 mps 745 mmHg 60%
21:00 +18°C° 0 mm 2 mps 745 mmHg 62%
22:00 +18°C° 0 mm 2 mps 745 mmHg 64%
23:00 +17°C° 0 mm 2 mps 745 mmHg 67%

Tomorrow, 16 July, Thursday

Time Temperature Precipitation Wind Pressure Humidity
00:00 +17°C° 0 mm 2 mps 745 mmHg 67%
01:00 +16°C° 0 mm 1 mps 745 mmHg 67%
02:00 +16°C° 0 mm 1 mps 745 mmHg 67%
03:00 +16°C° 0 mm 1 mps 745 mmHg 67%
04:00 +16°C° 0 mm 0 mps 745 mmHg 68%
05:00 +16°C° 0 mm 0 mps 744 mmHg 68%
06:00 +18°C° 0 mm 0 mps 745 mmHg 61%
07:00 +22°C° 0 mm 1 mps 745 mmHg 55%
08:00 +24°C° 0 mm 1 mps 745 mmHg 49%
09:00 +25°C° 0 mm 1 mps 745 mmHg 45%
10:00 +26°C° 0 mm 1 mps 745 mmHg 41%
11:00 +27°C° 0 mm 1 mps 745 mmHg 38%
12:00 +27°C° 0 mm 2 mps 745 mmHg 38%
13:00 +27°C° 0 mm 2 mps 744 mmHg 37%
14:00 +27°C° 0 mm 2 mps 744 mmHg 37%
15:00 +27°C° 0 mm 2 mps 744 mmHg 40%
16:00 +27°C° 0 mm 2 mps 743 mmHg 42%
17:00 +26°C° 0 mm 2 mps 743 mmHg 44%
18:00 +25°C° 0 mm 2 mps 743 mmHg 47%
19:00 +23°C° 0 mm 2 mps 743 mmHg 51%
20:00 +21°C° 0 mm 2 mps 744 mmHg 54%
21:00 +21°C° 0 mm 3 mps 743 mmHg 55%
22:00 +20°C° 0 mm 3 mps 743 mmHg 57%
23:00 +20°C° 0 mm 3 mps 743 mmHg 58%

Day after tomorrow, 17 July, Friday

Time Temperature Precipitation Wind Pressure Humidity
00:00 +19°C° 0 mm 3 mps 743 mmHg 58%
01:00 +19°C° 0 mm 3 mps 743 mmHg 59%
02:00 +19°C° 0 mm 3 mps 743 mmHg 59%
03:00 +19°C° 0 mm 3 mps 743 mmHg 61%
04:00 +19°C° 0 mm 3 mps 743 mmHg 63%
05:00 +19°C° 0 mm 3 mps 743 mmHg 65%
06:00 +20°C° 0 mm 3 mps 743 mmHg 61%
07:00 +22°C° 0 mm 3 mps 743 mmHg 58%
08:00 +23°C° 0 mm 4 mps 744 mmHg 54%
09:00 +25°C° 0 mm 3 mps 743 mmHg 51%
10:00 +26°C° 0 mm 3 mps 743 mmHg 47%
11:00 +27°C° 0 mm 3 mps 743 mmHg 44%
12:00 +28°C° 0 mm 3 mps 743 mmHg 42%
13:00 +28°C° 0 mm 3 mps 743 mmHg 41%
14:00 +29°C° 0 mm 3 mps 743 mmHg 39%
15:00 +28°C° 0 mm 3 mps 743 mmHg 42%
16:00 +28°C° 0 mm 3 mps 743 mmHg 46%
17:00 +27°C° 0 mm 3 mps 743 mmHg 49%
18:00 +26°C° 0 mm 3 mps 743 mmHg 52%
19:00 +24°C° 0 mm 3 mps 743 mmHg 55%
20:00 +22°C° 0 mm 4 mps 743 mmHg 58%
21:00 +22°C° 0 mm 3 mps 744 mmHg 61%
22:00 +21°C° 0 mm 3 mps 744 mmHg 64%
23:00 +20°C° 0 mm 3 mps 744 mmHg 67%

18 July, Saturday

Time Temperature Precipitation Wind Pressure Humidity
00:00 +20°C° 0 mm 2 mps 744 mmHg 67%
01:00 +20°C° 0 mm 2 mps 744 mmHg 68%
02:00 +20°C° 0 mm 2 mps 744 mmHg 68%
03:00 +20°C° 0 mm 2 mps 744 mmHg 70%
04:00 +19°C° 0 mm 2 mps 745 mmHg 72%
05:00 +19°C° 0 mm 2 mps 745 mmHg 74%
06:00 +21°C° 0 mm 2 mps 745 mmHg 68%
07:00 +23°C° 0 mm 2 mps 745 mmHg 63%
08:00 +25°C° 0 mm 2 mps 746 mmHg 57%
09:00 +26°C° 0 mm 2 mps 746 mmHg 52%
10:00 +28°C° 0 mm 2 mps 746 mmHg 48%
11:00 +29°C° 0 mm 2 mps 746 mmHg 44%
12:00 +29°C° 0 mm 2 mps 746 mmHg 43%
13:00 +29°C° 0 mm 2 mps 746 mmHg 42%
14:00 +29°C° 0 mm 2 mps 745 mmHg 40%
15:00 +29°C° 0 mm 2 mps 745 mmHg 42%
16:00 +29°C° 0 mm 2 mps 745 mmHg 44%
17:00 +28°C° 0 mm 2 mps 745 mmHg 46%
18:00 +27°C° 0 mm 2 mps 745 mmHg 49%
19:00 +25°C° 0 mm 2 mps 746 mmHg 53%
20:00 +24°C° 0 mm 2 mps 746 mmHg 56%
21:00 +23°C° 0 mm 2 mps 746 mmHg 56%
22:00 +22°C° 0 mm 3 mps 746 mmHg 57%
23:00 +21°C° 0 mm 3 mps 746 mmHg 57%

19 July, Sunday

Time Temperature Precipitation Wind Pressure Humidity
00:00 +20°C° 0 mm 3 mps 746 mmHg 58%
01:00 +20°C° 0 mm 3 mps 746 mmHg 59%
02:00 +19°C° 0 mm 2 mps 746 mmHg 61%
03:00 +19°C° 0 mm 2 mps 746 mmHg 63%
04:00 +19°C° 0 mm 2 mps 746 mmHg 65%
05:00 +19°C° 0 mm 2 mps 746 mmHg 67%
06:00 +21°C° 0 mm 3 mps 746 mmHg 62%
07:00 +24°C° 0 mm 3 mps 746 mmHg 56%
08:00 +26°C° 0 mm 3 mps 745 mmHg 51%
09:00 +27°C° 0 mm 3 mps 745 mmHg 46%
10:00 +28°C° 0 mm 3 mps 745 mmHg 42%
11:00 +29°C° 0 mm 2 mps 745 mmHg 38%
12:00 +30°C° 0 mm 2 mps 745 mmHg 36%
13:00 +30°C° 0 mm 2 mps 744 mmHg 34%
14:00 +31°C° 0 mm 2 mps 744 mmHg 32%
15:00 +30°C° 0 mm 2 mps 744 mmHg 33%
16:00 +30°C° 0 mm 2 mps 744 mmHg 35%
17:00 +30°C° 0 mm 2 mps 743 mmHg 36%
18:00 +28°C° 0 mm 3 mps 743 mmHg 43%
19:00 +26°C° 0 mm 3 mps 743 mmHg 49%
20:00 +23°C° 0 mm 4 mps 743 mmHg 55%
21:00 +22°C° 0 mm 3 mps 743 mmHg 58%
22:00 +22°C° 0 mm 3 mps 743 mmHg 60%
23:00 +21°C° 0 mm 3 mps 743 mmHg 63%

20 July, Monday

Time Temperature Precipitation Wind Pressure Humidity
00:00 +20°C° 0 mm 3 mps 743 mmHg 62%
01:00 +20°C° 0 mm 3 mps 743 mmHg 61%
02:00 +20°C° 0 mm 3 mps 743 mmHg 60%
03:00 +20°C° 0 mm 2 mps 743 mmHg 60%
04:00 +20°C° 0 mm 2 mps 743 mmHg 60%
05:00 +20°C° 0 mm 2 mps 742 mmHg 60%
06:00 +23°C° 0 mm 2 mps 742 mmHg 56%
07:00 +25°C° 0 mm 2 mps 742 mmHg 52%
08:00 +26°C° 0 mm 3 mps 742 mmHg 48%
09:00 +28°C° 0 mm 2 mps 742 mmHg 44%
10:00 +29°C° 0 mm 2 mps 742 mmHg 41%
11:00 +30°C° 0 mm 2 mps 742 mmHg 37%
12:00 +30°C° 0 mm 2 mps 741 mmHg 37%
13:00 +30°C° 0 mm 2 mps 741 mmHg 37%
14:00 +30°C° 0 mm 2 mps 741 mmHg 38%
15:00 +30°C° 0 mm 2 mps 740 mmHg 39%
16:00 +30°C° 0 mm 2 mps 740 mmHg 39%
17:00 +30°C° 0 mm 2 mps 740 mmHg 40%
18:00 +28°C° 0 mm 2 mps 739 mmHg 44%
19:00 +26°C° 0 mm 2 mps 739 mmHg 48%
20:00 +25°C° 0 mm 2 mps 739 mmHg 51%
21:00 +24°C° 0 mm 2 mps 739 mmHg 53%
22:00 +23°C° 0 mm 2 mps 739 mmHg 54%
23:00 +23°C° 0 mm 2 mps 739 mmHg 55%
Show more